| time (UTC) | temp F | wind direction | speed MPH | gust MPH | rain 1hr in | rain 24hr in | rain mn in | humidity % | barometer mb |
| 20260906150206 | 89 | 264 | 3.0 | 7.0 | 0.00 | 0.24 | 0.01 | 76 | 1013.5 |
| 20260906145156 | 89 | 275 | 3.0 | 7.0 | 0.00 | 0.24 | 0.01 | 72 | 1013.6 |
| 20260906144155 | 88 | 267 | 3.0 | 8.0 | 0.00 | 0.24 | 0.01 | 71 | 1013.6 |
| 20260906143156 | 87 | 286 | 3.0 | 10.0 | 0.00 | 0.24 | 0.01 | 78 | 1013.5 |
| 20260906142152 | 87 | 257 | 2.0 | 5.0 | 0.00 | 0.24 | 0.01 | 79 | 1013.5 |
| 20260906141153 | 87 | 300 | 3.0 | 7.0 | 0.00 | 0.24 | 0.01 | 80 | 1013.6 |
| 20260906140636 | 85 | 262 | 2.0 | 7.0 | 0.00 | 0.24 | 0.01 | 82 | 1013.7 |
| 20260906135153 | 85 | 293 | 3.0 | 7.0 | 0.00 | 0.24 | 0.01 | 83 | 1013.8 |
| 20260906134153 | 84 | 285 | 1.0 | 7.0 | 0.00 | 0.24 | 0.01 | 85 | 1013.9 |
| 20260906133643 | 84 | 237 | 1.0 | 3.0 | 0.00 | 0.24 | 0.01 | 86 | 1013.8 |
| 20260906132151 | 83 | 186 | 0.0 | 0.0 | 0.00 | 0.24 | 0.01 | 88 | 1013.9 |
| 20260906131152 | 82 | 186 | 0.0 | 0.0 | 0.00 | 0.24 | 0.01 | 89 | 1013.9 |
| 20260906130634 | 81 | 179 | 0.0 | 0.0 | 0.00 | 0.24 | 0.01 | 91 | 1013.9 |
| 20260906125152 | 81 | 179 | 0.0 | 0.0 | 0.00 | 0.24 | 0.01 | 92 | 1013.8 |
| 20260906124141 | 80 | 179 | 0.0 | 0.0 | 0.00 | 0.24 | 0.01 | 93 | 1013.7 |
| 20260906124105 | 79 | 178 | 0.0 | 0.0 | 0.00 | 0.24 | 0.01 | 94 | 1013.6 |
| 20260906122142 | 78 | 179 | 0.0 | 0.0 | 0.00 | 0.24 | 0.01 | 94 | 1013.4 |
| 20260906121143 | 77 | 179 | 0.0 | 4.0 | 0.00 | 0.24 | 0.01 | 95 | 1013.4 |
| 20260906120126 | 76 | 178 | 0.0 | 2.0 | 0.00 | 0.24 | 0.01 | 95 | 1013.4 |
| 20260906115128 | 75 | 178 | 0.0 | 0.0 | 0.00 | 0.24 | 0.01 | 95 | 1013.2 |
| 20260906114126 | 74 | 178 | 0.0 | 0.0 | 0.00 | 0.24 | 0.01 | 95 | 1013.1 |
| 20260906114056 | 74 | 178 | 0.0 | 0.0 | 0.00 | 0.24 | 0.01 | 95 | 1013.0 |
| 20260906112618 | 74 | 178 | 0.0 | 0.0 | 0.00 | 0.24 | 0.01 | 94 | 1012.9 |
| 20260906111126 | 74 | 178 | 0.0 | 0.0 | 0.00 | 0.24 | 0.01 | 94 | 1012.9 |
| 20260906110127 | 74 | 178 | 0.0 | 0.0 | 0.00 | 0.24 | 0.01 | 94 | 1012.7 |
| 20260906105609 | 74 | 178 | 0.0 | 0.0 | 0.00 | 0.24 | 0.01 | 94 | 1012.5 |
| 20260906104126 | 74 | 178 | 0.0 | 0.0 | 0.00 | 0.24 | 0.01 | 94 | 1012.3 |
| 20260906103609 | 74 | 178 | 0.0 | 0.0 | 0.00 | 0.24 | 0.01 | 94 | 1012.1 |
| 20260906102130 | 74 | 178 | 0.0 | 0.0 | 0.00 | 0.24 | 0.01 | 94 | 1012.0 |
| 20260906101125 | 74 | 178 | 0.0 | 0.0 | 0.00 | 0.24 | 0.01 | 94 | 1011.8 |
| 20260906100127 | 74 | 178 | 0.0 | 0.0 | 0.00 | 0.24 | 0.01 | 94 | 1011.8 |
| 20260906095126 | 74 | 178 | 0.0 | 0.0 | 0.00 | 0.24 | 0.01 | 94 | 1011.9 |
| 20260906094608 | 74 | 178 | 0.0 | 0.0 | 0.00 | 0.24 | 0.01 | 94 | 1011.8 |
| 20260906093601 | 74 | 178 | 0.0 | 0.0 | 0.00 | 0.24 | 0.01 | 94 | 1011.8 |
| 20260906092126 | 75 | 178 | 0.0 | 0.0 | 0.00 | 0.24 | 0.01 | 94 | 1011.7 |
| 20260906091127 | 74 | 178 | 0.0 | 0.0 | 0.00 | 0.24 | 0.01 | 94 | 1011.5 |
| 20260906090127 | 75 | 178 | 0.0 | 0.0 | 0.00 | 0.24 | 0.01 | 94 | 1011.5 |
| 20260906085127 | 75 | 178 | 0.0 | 0.0 | 0.00 | 0.24 | 0.01 | 94 | 1011.4 |
| 20260906084126 | 75 | 178 | 0.0 | 0.0 | 0.00 | 0.24 | 0.01 | 94 | 1011.3 |
| 20260906083129 | 75 | 178 | 0.0 | 0.0 | 0.00 | 0.24 | 0.01 | 94 | 1011.4 |
| 20260906082125 | 75 | 178 | 0.0 | 0.0 | 0.01 | 0.25 | 0.01 | 94 | 1011.4 |
| 20260906081123 | 75 | 178 | 0.0 | 0.0 | 0.01 | 0.25 | 0.01 | 94 | 1011.2 |
| 20260906080125 | 75 | 178 | 0.0 | 1.0 | 0.01 | 0.25 | 0.01 | 94 | 1011.2 |
| 20260906075125 | 75 | 178 | 1.0 | 4.0 | 0.01 | 0.25 | 0.01 | 94 | 1011.3 |
| 20260906074126 | 75 | 178 | 0.0 | 4.0 | 0.01 | 0.25 | 0.01 | 94 | 1011.4 |
| 20260906073110 | 75 | 178 | 0.0 | 4.0 | 0.01 | 0.25 | 0.01 | 94 | 1011.3 |
| 20260906072548 | 75 | 178 | 0.0 | 1.0 | 0.00 | 0.24 | 0.00 | 94 | 1011.4 |
| 20260906071110 | 75 | 178 | 0.0 | 0.0 | 0.00 | 0.24 | 0.00 | 94 | 1011.7 |
| 20260906070109 | 76 | 178 | 0.0 | 0.0 | 0.00 | 0.24 | 0.00 | 93 | 1011.7 |
| 20260906065058 | 76 | 178 | 0.0 | 1.0 | 0.00 | 0.24 | 0.00 | 93 | 1011.9 |
| 20260906065012 | 76 | 178 | 0.0 | 0.0 | 0.00 | 0.24 | 0.00 | 93 | 1012.2 |
| 20260906063056 | 76 | 178 | 0.0 | 0.0 | 0.00 | 0.24 | 0.00 | 93 | 1012.4 |
| 20260906062531 | 76 | 178 | 0.0 | 0.0 | 0.00 | 0.24 | 0.00 | 93 | 1012.5 |
| 20260906061055 | 76 | 178 | 0.0 | 1.0 | 0.00 | 0.24 | 0.00 | 93 | 1012.6 |
| 20260906060046 | 76 | 178 | 0.0 | 3.0 | 0.00 | 0.24 | 0.00 | 93 | 1012.6 |
| 20260906055046 | 76 | 178 | 1.0 | 4.0 | 0.00 | 0.24 | 0.00 | 93 | 1012.7 |
| 20260906054537 | 76 | 176 | 1.0 | 4.0 | 0.00 | 0.24 | 0.00 | 93 | 1012.7 |
| 20260906053043 | 77 | 175 | 1.0 | 4.0 | 0.00 | 0.24 | 0.00 | 93 | 1012.9 |
| 20260906052518 | 77 | 175 | 0.0 | 1.0 | 0.00 | 0.24 | 0.00 | 93 | 1012.9 |
| 20260906051041 | 77 | 175 | 0.0 | 1.0 | 0.00 | 0.24 | 0.00 | 93 | 1013.0 |
| 20260906050037 | 77 | 175 | 0.0 | 1.0 | 0.00 | 0.24 | 0.00 | 93 | 1013.1 |
| 20260906045037 | 77 | 176 | 0.0 | 1.0 | 0.00 | 0.24 | 0.00 | 93 | 1013.1 |
| 20260906044038 | 77 | 176 | 0.0 | 0.0 | 0.00 | 0.24 | 0.00 | 92 | 1013.1 |
| 20260906043037 | 77 | 175 | 0.0 | 1.0 | 0.00 | 0.24 | 0.00 | 92 | 1013.0 |
| 20260906042034 | 77 | 175 | 1.0 | 4.0 | 0.00 | 0.24 | 0.00 | 92 | 1013.0 |
| 20260906041033 | 77 | 176 | 0.0 | 3.0 | 0.00 | 0.24 | 0.00 | 92 | 1013.1 |
| 20260906040031 | 77 | 175 | 0.0 | 0.0 | 0.00 | 0.24 | 0.00 | 92 | 1013.3 |
| 20260906035029 | 77 | 175 | 0.0 | 0.0 | 0.00 | 0.24 | 0.24 | 92 | 1013.3 |
| 20260906034029 | 78 | 176 | 0.0 | 0.0 | 0.00 | 0.24 | 0.24 | 91 | 1013.3 |
| 20260906033454 | 78 | 175 | 0.0 | 0.0 | 0.00 | 0.24 | 0.24 | 91 | 1013.4 |
| 20260906032500 | 78 | 176 | 0.0 | 3.0 | 0.00 | 0.24 | 0.24 | 91 | 1013.4 |
| 20260906031018 | 78 | 175 | 0.0 | 4.0 | 0.00 | 0.24 | 0.24 | 90 | 1013.5 |
| 20260906030018 | 78 | 176 | 2.0 | 5.0 | 0.00 | 0.24 | 0.24 | 90 | 1013.4 |
| 20260906025930 | 78 | 176 | 3.0 | 7.0 | 0.00 | 0.24 | 0.24 | 90 | 1013.4 |
| 20260906024018 | 78 | 191 | 2.0 | 4.0 | 0.00 | 0.24 | 0.24 | 90 | 1013.5 |
| 20260906023019 | 79 | 190 | 4.0 | 10.0 | 0.00 | 0.24 | 0.24 | 90 | 1013.6 |
| 20260906022015 | 79 | 163 | 4.0 | 7.0 | 0.00 | 0.24 | 0.24 | 91 | 1013.6 |
| 20260906021501 | 79 | 173 | 3.0 | 9.0 | 0.00 | 0.24 | 0.24 | 92 | 1013.5 |
| 20260906020017 | 78 | 194 | 2.0 | 7.0 | 0.00 | 0.25 | 0.24 | 92 | 1013.4 |
| 20260906015014 | 78 | 154 | 2.0 | 5.0 | 0.00 | 0.25 | 0.24 | 92 | 1013.4 |
| 20260906014502 | 78 | 146 | 2.0 | 4.0 | 0.00 | 0.25 | 0.24 | 92 | 1013.4 |
| 20260906013013 | 78 | 135 | 1.0 | 3.0 | 0.00 | 0.25 | 0.24 | 92 | 1013.2 |
| 20260906012015 | 78 | 131 | 0.0 | 3.0 | 0.00 | 0.26 | 0.24 | 92 | 1013.3 |
| 20260906011017 | 78 | 129 | 1.0 | 3.0 | 0.00 | 0.27 | 0.24 | 91 | 1013.1 |
| 20260906010456 | 79 | 129 | 0.0 | 2.0 | 0.00 | 0.27 | 0.24 | 91 | 1013.0 |
| 20260906005011 | 79 | 129 | 1.0 | 4.0 | 0.00 | 0.27 | 0.24 | 91 | 1012.9 |
| 20260906004009 | 79 | 129 | 2.0 | 7.0 | 0.00 | 0.27 | 0.24 | 91 | 1012.7 |
| 20260906003451 | 79 | 115 | 2.0 | 8.0 | 0.00 | 0.27 | 0.24 | 91 | 1012.8 |
| 20260906002009 | 79 | 229 | 0.0 | 3.0 | 0.00 | 0.27 | 0.24 | 92 | 1012.6 |
| 20260906001006 | 79 | 230 | 0.0 | 2.0 | 0.00 | 0.29 | 0.24 | 92 | 1012.5 |
| 20260906000005 | 79 | 230 | 0.0 | 1.0 | 0.00 | 0.29 | 0.24 | 91 | 1012.5 |
| 20260905235005 | 80 | 229 | 1.0 | 4.0 | 0.00 | 0.29 | 0.24 | 91 | 1012.5 |
| 20260905234006 | 80 | 258 | 1.0 | 4.0 | 0.00 | 0.29 | 0.24 | 91 | 1012.5 |
| 20260905233008 | 80 | 344 | 0.0 | 2.0 | 0.00 | 0.29 | 0.24 | 90 | 1012.4 |
| 20260905232434 | 80 | 346 | 0.0 | 1.0 | 0.00 | 0.29 | 0.24 | 89 | 1012.3 |
| 20260905231438 | 80 | 346 | 0.0 | 2.0 | 0.00 | 0.29 | 0.24 | 90 | 1012.0 |
| 20260905225955 | 81 | 346 | 1.0 | 3.0 | 0.00 | 0.29 | 0.24 | 89 | 1012.2 |
| 20260905224956 | 80 | 346 | 2.0 | 4.0 | 0.01 | 0.29 | 0.24 | 90 | 1012.3 |
| 20260905223956 | 80 | 344 | 1.0 | 5.0 | 0.02 | 0.29 | 0.24 | 91 | 1012.8 |
| 20260905222951 | 80 | 354 | 1.0 | 4.0 | 0.09 | 0.29 | 0.24 | 91 | 1012.8 |
| 20260905221952 | 79 | 356 | 1.0 | 4.0 | 0.18 | 0.29 | 0.24 | 90 | 1012.6 |
| 20260905221437 | 79 | 350 | 3.0 | 6.0 | 0.23 | 0.29 | 0.24 | 90 | 1012.8 |
| 20260905215951 | 78 | 15 | 2.0 | 4.0 | 0.23 | 0.29 | 0.24 | 89 | 1012.6 |
| 20260905214951 | 78 | 19 | 3.0 | 8.0 | 0.22 | 0.28 | 0.23 | 88 | 1012.6 |
| 20260905213949 | 78 | 355 | 6.0 | 15.0 | 0.21 | 0.27 | 0.23 | 87 | 1012.6 |
| 20260905213509 | 81 | 271 | 11.0 | 28.0 | 0.05 | 0.11 | 0.06 | 75 | 1012.8 |
| 20260905213433 | 78 | 10 | 6.0 | 15.0 | 0.14 | 0.20 | 0.16 | 85 | 1013.0 |
| 20260905211430 | 88 | 229 | 5.0 | 12.0 | 0.00 | 0.07 | 0.01 | 66 | 1012.5 |
| 20260905205948 | 90 | 235 | 3.0 | 9.0 | 0.00 | 0.17 | 0.01 | 65 | 1012.1 |
| 20260905204950 | 92 | 283 | 3.0 | 7.0 | 0.00 | 0.18 | 0.01 | 63 | 1011.9 |
| 20260905203950 | 94 | 302 | 3.0 | 8.0 | 0.00 | 0.18 | 0.01 | 60 | 1011.7 |
| 20260905202948 | 95 | 269 | 4.0 | 10.0 | 0.00 | 0.18 | 0.01 | 62 | 1011.9 |
| 20260905201947 | 92 | 262 | 5.0 | 10.0 | 0.00 | 0.18 | 0.01 | 65 | 1011.7 |
| 20260905201907 | 94 | 246 | 4.0 | 13.0 | 0.00 | 0.18 | 0.01 | 61 | 1011.9 |
| 20260905195946 | 94 | 306 | 3.0 | 10.0 | 0.00 | 0.18 | 0.01 | 61 | 1012.0 |
| 20260905194947 | 96 | 328 | 5.0 | 11.0 | 0.00 | 0.18 | 0.01 | 62 | 1012.0 |
| 20260905193946 | 96 | 15 | 5.0 | 11.0 | 0.00 | 0.18 | 0.01 | 61 | 1012.0 |
| 20260905192946 | 94 | 349 | 5.0 | 10.0 | 0.00 | 0.18 | 0.01 | 66 | 1012.3 |
| 20260905191939 | 91 | 299 | 4.0 | 11.0 | 0.00 | 0.18 | 0.01 | 68 | 1012.3 |
| 20260905190937 | 92 | 300 | 4.0 | 11.0 | 0.00 | 0.18 | 0.01 | 64 | 1012.5 |
| 20260905185938 | 95 | 223 | 3.0 | 13.0 | 0.00 | 0.18 | 0.01 | 60 | 1012.5 |
| 20260905184939 | 95 | 264 | 4.0 | 10.0 | 0.00 | 0.18 | 0.01 | 56 | 1012.4 |
| 20260905183929 | 95 | 237 | 5.0 | 13.0 | 0.00 | 0.18 | 0.01 | 57 | 1012.4 |
| 20260905183409 | 95 | 242 | 5.0 | 11.0 | 0.00 | 0.18 | 0.01 | 57 | 1012.4 |
| 20260905182405 | 95 | 230 | 5.0 | 11.0 | 0.00 | 0.18 | 0.01 | 60 | 1012.6 |
| 20260905180931 | 94 | 244 | 3.0 | 8.0 | 0.00 | 0.18 | 0.01 | 64 | 1012.7 |
| 20260905175929 | 95 | 244 | 4.0 | 9.0 | 0.00 | 0.18 | 0.01 | 61 | 1012.9 |
| 20260905174929 | 95 | 293 | 3.0 | 7.0 | 0.00 | 0.18 | 0.01 | 61 | 1013.1 |
| 20260905174410 | 93 | 250 | 4.0 | 9.0 | 0.00 | 0.18 | 0.01 | 66 | 1013.2 |
| 20260905172930 | 92 | 212 | 3.0 | 6.0 | 0.00 | 0.18 | 0.01 | 63 | 1013.4 |
| 20260905171930 | 91 | 278 | 3.0 | 7.0 | 0.00 | 0.18 | 0.01 | 65 | 1013.6 |
| 20260905170926 | 94 | 294 | 4.0 | 9.0 | 0.00 | 0.18 | 0.01 | 64 | 1013.7 |
| 20260905170844 | 92 | 287 | 5.0 | 10.0 | 0.00 | 0.18 | 0.01 | 64 | 1013.8 |
| 20260905165422 | 93 | 216 | 4.0 | 9.0 | 0.00 | 0.18 | 0.01 | 66 | 1014.0 |
| 20260905164413 | 92 | 286 | 4.0 | 10.0 | 0.00 | 0.18 | 0.01 | 66 | 1014.2 |
| 20260905162924 | 91 | 273 | 4.0 | 7.0 | 0.00 | 0.18 | 0.01 | 68 | 1014.3 |
| 20260905161924 | 92 | 253 | 4.0 | 11.0 | 0.00 | 0.18 | 0.01 | 65 | 1014.4 |
| 20260905160925 | 92 | 245 | 4.0 | 9.0 | 0.00 | 0.18 | 0.01 | 65 | 1014.5 |
| 20260905155922 | 91 | 275 | 4.0 | 11.0 | 0.00 | 0.18 | 0.01 | 67 | 1014.6 |
| 20260905154922 | 91 | 232 | 3.0 | 10.0 | 0.00 | 0.18 | 0.01 | 71 | 1014.7 |
| 20260905153924 | 90 | 279 | 4.0 | 8.0 | 0.00 | 0.18 | 0.01 | 70 | 1014.7 |
| 20260905152922 | 91 | 248 | 3.0 | 8.0 | 0.00 | 0.18 | 0.01 | 69 | 1014.8 |
| 20260905151922 | 90 | 232 | 3.0 | 9.0 | 0.00 | 0.18 | 0.01 | 70 | 1014.9 |
| 20260905150925 | 89 | 237 | 3.0 | 11.0 | 0.00 | 0.18 | 0.01 | 72 | 1014.8 |